{"data":{"norad_id":66604,"intl_designator":"2025-270S","name":"STARLINK-35977","alt_names":[],"object_type":"PAYLOAD","status":"ACTIVE","operator":null,"country":"US","launch_date":"2025-11-22","launch_site_code":"AFETR","launch_vehicle":null,"mission":null,"orbit_class":"UNKNOWN","rcs_meters":null,"size_class":null,"mass_kg":null,"dimensions":null,"purposes":["comms"],"wikipedia_slug":null,"has_3d_model":false,"image_url":null,"decayed_at":null,"tle_current":{"epoch":"2026-05-24T22:49:09.927840Z","epoch_age_seconds":72585,"freshness":"FRESH","line1":"1 66604U 25270S   26144.95080935  .00016279  00000+0  59965-3 0  9995","line2":"2 66604  43.0038 345.1004 0001600 264.0945  95.9725 15.27587946 29378","mean_motion":15.27587946,"eccentricity":0.00016,"inclination_deg":43.0038,"raan_deg":345.1004,"arg_perigee_deg":264.0945,"mean_anomaly_deg":95.9725,"bstar":0.00059965,"rev_number":2937,"period_min":94.266258369651,"perigee_km":481.92751699176,"apogee_km":484.12308892871,"semimajor_km":6861.1623029602,"source":"CELESTRAK","updated_at":"2026-05-25T13:38:21.290704Z"}}}